[[{"header":{"parameterUnit":"m.s-1","parameterCategory":1,"la1":30.2992,"la2":30.254,"lo1":-89.0895,"lo2":-89.0443,"dy":0.0025,"dx":0.0025,"nx":19,"ny":19,"refTime":"2026-03-31T21:00:00:Z","depth":0,"parameterNumber":2,"parameterNumberName":"U-component_of_WINDS"},"data":[0,0,0,-4.7899,-4.7901,-4.8004,-4.8004,-4.8142,-4.8143,0,0,0,0,0,0,0,0,0,0,0,-4.7873,-4.7874,-4.7898,-4.7901,-4.8003,-4.8004,-4.8142,-4.8143,0,0,0,0,0,0,0,0,0,0,0,-4.7872,-4.7874,-4.7875,-4.7901,-4.8003,-4.8004,-4.8141,-4.8061,0,0,0,0,0,0,0,0,0,0,-4.796,-4.7941,-4.7873,-4.7875,-4.7902,-4.8003,-4.8004,-4.8057,-4.8066,-4.8099,0,-4.8129,0,-4.8139,-4.8153,-4.8153,0,0,0,-4.7897,-4.7934,-4.7958,-4.7875,-4.7903,-4.8003,-4.7956,-4.8062,-4.8072,-4.8111,-4.8131,-4.8136,-4.8141,-4.8154,-4.8155,-4.8356,-4.8357,0,0,-4.7891,-4.7893,-4.7951,-4.7965,-4.795,-4.7953,-4.7959,-4.8068,-4.809,-4.8132,-4.8139,-4.8143,-4.8155,-4.8156,-4.8355,-4.8356,0,0,0,-4.7878,-4.789,-4.791,-4.7959,-4.7977,-4.7956,-4.7963,-4.8085,-4.8092,-4.8141,-4.8145,-4.8156,-4.8157,-4.8354,-4.8356,-4.8412,0,0,0,-4.7874,-4.7882,-4.7908,-4.791,-4.7975,-4.8033,-4.7978,-4.8085,-4.8097,-4.8144,-4.8156,-4.8159,-4.8353,-4.8355,-4.8408,-4.8438,0,0,0,-4.7864,-4.788,-4.7897,-4.791,-4.7955,-4.8031,-4.8044,-4.8087,-4.81,-4.8154,-4.8159,-4.8352,-4.8354,-4.8404,-4.8432,-4.8491,0,0,0,-4.7854,-4.7946,-4.7898,-4.8002,-4.7954,-4.8066,-4.8043,-4.8126,-4.818,-4.8156,-4.8353,-4.8355,-4.8403,-4.8428,-4.8487,-4.8539,-4.8562,0,0,-4.797,-4.796,-4.8021,-4.7981,-4.8103,-4.8051,-4.818,-4.8226,-4.8229,-4.8314,-4.8319,-4.841,-4.8431,-4.849,-4.8692,-4.871,0,0,0,-4.8058,-4.8102,-4.8134,-4.8185,-4.8224,-4.8259,-4.8286,-4.8303,-4.8375,-4.8273,-4.8448,-4.8461,-4.8495,-4.852,-4.8535,-4.8564,-4.8368,-4.8367,-4.8367,-4.8223,-4.8224,-4.8324,-4.8338,-4.8389,-4.8416,-4.8457,-4.8485,-4.847,-4.8512,-4.8535,-4.8658,-4.8688,-4.8699,-4.8729,-4.8565,-4.8565,-4.8566,-4.8566,-4.8391,-4.8452,-4.8433,-4.8523,-4.8524,-4.86,-4.8631,-4.8619,-4.8689,-4.864,-4.867,-4.8614,-4.8719,-4.8745,-4.857,-4.8569,-4.8569,-4.8568,-4.8568,-4.8497,-4.8526,-4.8548,-4.8623,-4.8682,-4.8693,-4.8762,-4.876,-4.8758,-4.8789,-4.8813,-4.8812,-4.8809,-4.8801,-4.8802,-4.8802,-4.8803,-4.8803,-4.8803,-4.8597,-4.8619,-4.8678,-4.8729,-4.8763,-4.8807,-4.8838,-4.8871,-4.8906,-4.8899,-4.8899,-4.8879,-4.873,-4.8691,-4.881,-4.8808,-4.8808,-4.8807,-4.8807,-4.8763,-4.8726,-4.8816,-4.885,-4.891,-4.8968,-4.8967,-4.9034,-4.9061,-4.9095,-4.9071,-4.8962,-4.8949,-4.8937,-4.8905,-4.9071,-4.9071,-4.9071,-4.9071,-4.885,-4.8845,-4.8938,-4.8992,-4.9046,-4.9054,-4.9156,-4.9183,-4.9203,-4.922,-4.9197,-4.9155,-4.9142,-4.9137,-4.9121,-4.909,-4.9301,-4.9301,-4.9301,-4.8952,-4.8952,-4.9039,-4.906,-4.9108,-4.9149,-4.9245,-4.9308,-4.9324,-4.931,-4.9233,-4.9223,-4.9155,-4.9134,-4.9114,-4.9088,-4.9032,0,0]},{"header":{"parameterUnit":"m.s-1","parameterCategory":1,"la1":30.2992,"la2":30.254,"lo1":-89.0895,"lo2":-89.0443,"dy":0.0025,"dx":0.0025,"nx":19,"ny":19,"refTime":"2026-03-31T21:00:00:Z","depth":0,"parameterNumber":3,"parameterNumberName":"V-component_of_WINDS"},"data":[0,0,0,3.7672,3.7675,3.7861,3.7862,3.8081,3.8083,0,0,0,0,0,0,0,0,0,0,0,3.7605,3.7606,3.7671,3.7676,3.7861,3.7862,3.808,3.8083,0,0,0,0,0,0,0,0,0,0,0,3.7604,3.7606,3.7607,3.7676,3.7861,3.7862,3.808,3.7947,0,0,0,0,0,0,0,0,0,0,3.7769,3.7696,3.7605,3.7607,3.7677,3.7861,3.7862,3.794,3.7955,3.7989,0,3.8015,0,3.8052,3.8096,3.8097,0,0,0,3.7684,3.7684,3.7745,3.7607,3.7679,3.7861,3.778,3.7949,3.7965,3.8007,3.8019,3.8027,3.8056,3.8097,3.8098,3.8268,3.8268,0,0,3.7674,3.7632,3.7734,3.7755,3.7725,3.7774,3.7786,3.7959,3.7968,3.8019,3.8033,3.806,3.8099,3.81,3.8267,3.8268,0,0,0,3.7639,3.7624,3.7681,3.7745,3.778,3.7779,3.7793,3.796,3.7982,3.8035,3.8062,3.81,3.8102,3.8267,3.8268,3.8249,0,0,0,3.7633,3.7604,3.7676,3.7652,3.7777,3.7873,3.7789,3.797,3.7991,3.8061,3.81,3.8104,3.8267,3.8267,3.8248,3.8246,0,0,0,3.7597,3.76,3.7623,3.765,3.7728,3.7871,3.7903,3.7976,3.8008,3.8097,3.8105,3.8266,3.8267,3.8248,3.8246,3.8282,0,0,0,3.7545,3.76,3.7621,3.7693,3.7726,3.7857,3.7903,3.8002,3.8076,3.8101,3.8267,3.8267,3.8248,3.8246,3.8281,3.8305,3.831,0,0,3.7591,3.7604,3.765,3.7675,3.7791,3.7832,3.7947,3.8053,3.8099,3.8209,3.8214,3.8248,3.8246,3.8281,3.8353,3.8357,0,0,0,3.765,3.7682,3.7723,3.7793,3.7877,3.795,3.8044,3.8085,3.8181,3.8147,3.8271,3.8271,3.8293,3.8307,3.831,3.8334,3.8271,3.8271,3.8271,3.7652,3.7712,3.7792,3.7875,3.7942,3.8041,3.8102,3.8173,3.8209,3.8238,3.8271,3.8308,3.8322,3.8325,3.8349,3.8287,3.8287,3.8287,3.8287,3.7726,3.7783,3.7835,3.7932,3.7994,3.8077,3.8175,3.82,3.8286,3.8287,3.8309,3.8306,3.8328,3.8352,3.8286,3.8286,3.8287,3.8287,3.8287,3.7735,3.7773,3.7823,3.7934,3.8013,3.8094,3.8177,3.8229,3.8279,3.8302,3.8345,3.8346,3.8355,3.8319,3.8319,3.8319,3.8319,3.8319,3.8319,3.7726,3.7783,3.7847,3.7944,3.7999,3.8077,3.818,3.8236,3.831,3.8343,3.8343,3.8379,3.8318,3.8303,3.8322,3.8321,3.8321,3.8321,3.832,3.778,3.7778,3.7875,3.793,3.8053,3.813,3.8197,3.8306,3.836,3.8399,3.8432,3.8378,3.8394,3.8392,3.838,3.8417,3.8417,3.8417,3.8417,3.779,3.7804,3.7919,3.8004,3.8094,3.8167,3.8278,3.8361,3.8445,3.8482,3.8484,3.8473,3.8468,3.8488,3.8483,3.8473,3.8533,3.8533,3.8533,3.7828,3.7855,3.7939,3.8023,3.8124,3.8209,3.8317,3.8414,3.8508,3.8539,3.8513,3.8509,3.849,3.848,3.8509,3.8501,3.8484,0,0]}]]